Location: Presov
(49.0000°N, 21.2500°E)
Time: 23:07:27
(UTC+02:00)

Vanguard 1 Rocket - All Passes

Search period start: 17 April 2021 00:00
Search period end: 27 April 2021 00:00
Orbit: 653 x 4223 km, 34.3° (Epoch: 17 April)

Date Brightness Start Highest point End Pass type
(mag) Time Alt. Az. Time Alt. Az. Time Alt. Az.
17 Apr - 15:52:22 10° SSW 15:54:26 13° S 15:56:31 10° SE daylight
17 Apr - 18:15:56 10° SW 18:18:20 13° S 18:21:05 10° SSE daylight
18 Apr - 14:42:46 10° S 14:43:53 11° S 14:44:59 10° SSE daylight
18 Apr - 17:05:26 10° SW 17:07:44 14° S 17:10:14 10° SSE daylight
19 Apr - 15:54:57 10° SSW 15:57:13 14° S 15:59:28 10° SSE daylight
19 Apr - 18:20:32 10° SSW 18:21:09 10° SSW 18:21:48 10° S daylight
20 Apr - 14:44:25 10° SSW 14:46:41 13° S 14:48:47 10° SSE daylight
20 Apr - 17:08:50 10° SSW 17:10:32 12° S 17:12:19 10° SSE daylight
21 Apr - 13:33:56 10° SSW 13:36:04 12° S 13:37:58 10° SSE daylight
21 Apr - 15:57:46 10° SW 16:00:00 13° S 16:02:12 10° SSE daylight
22 Apr - 12:24:03 10° S 12:25:17 10° SSE 12:26:26 10° SSE daylight
22 Apr - 14:46:41 10° SW 14:49:29 15° S 14:52:00 10° SE daylight
23 Apr - 13:35:27 10° SSW 13:38:54 15° S 13:41:44 10° SE daylight
23 Apr - 16:00:47 10° SW 16:02:46 13° S 16:04:42 10° SSE daylight
24 Apr - 12:24:13 10° SSW 12:28:08 15° S 12:31:15 10° SE daylight
24 Apr - 14:49:10 10° SW 14:52:17 15° S 14:55:01 10° SSE daylight
25 Apr - 11:13:18 10° S 11:17:08 13° SSE 11:20:15 10° SE daylight
25 Apr - 13:37:27 10° SW 13:41:43 18° S 13:45:04 10° SE daylight
25 Apr - 16:04:13 10° SW 16:05:30 11° SSW 16:06:45 10° S daylight
26 Apr - 10:03:54 10° S 10:05:52 11° SSE 10:07:39 10° SSE daylight
26 Apr - 12:25:35 10° SW 12:30:59 19° S 12:34:56 10° SE daylight
26 Apr - 14:51:48 10° SW 14:55:03 16° SSW 14:57:50 10° SSE daylight
